Meteo pe oră la Dzielna

Astăzi, 3 Martie, Miercuri

Timp Temperatura Precipitaţii Vânt Presiune Umiditate
00:00 +4°C° 0 mm 0 m/s 751 mmHg 84%
01:00 +3°C° 0 mm 0 m/s 750 mmHg 85%
02:00 +3°C° 0 mm 0 m/s 750 mmHg 85%
03:00 +4°C° 0 mm 1 m/s 750 mmHg 85%
04:00 +4°C° 0 mm 1 m/s 749 mmHg 86%
05:00 +4°C° 0 mm 1 m/s 749 mmHg 86%
06:00 +4°C° 0 mm 1 m/s 749 mmHg 86%
07:00 +4°C° 0 mm 1 m/s 749 mmHg 86%
08:00 +5°C° 0 mm 1 m/s 749 mmHg 77%
09:00 +7°C° 0 mm 1 m/s 748 mmHg 68%
10:00 +9°C° 0 mm 1 m/s 748 mmHg 60%
11:00 +11°C° 0 mm 1 m/s 748 mmHg 54%
12:00 +12°C° 0 mm 2 m/s 747 mmHg 48%
13:00 +14°C° 0 mm 2 m/s 747 mmHg 42%
14:00 +14°C° 0 mm 2 m/s 746 mmHg 42%
15:00 +14°C° 0 mm 2 m/s 745 mmHg 43%
16:00 +14°C° 0 mm 2 m/s 745 mmHg 44%
17:00 +12°C° 0 mm 2 m/s 745 mmHg 49%
18:00 +10°C° 0 mm 3 m/s 744 mmHg 55%
19:00 +8°C° 0 mm 3 m/s 744 mmHg 61%
20:00 +7°C° 0 mm 3 m/s 744 mmHg 65%
21:00 +5°C° 0 mm 3 m/s 743 mmHg 70%
22:00 +5°C° 0 mm 3 m/s 743 mmHg 75%
23:00 +4°C° 0 mm 3 m/s 742 mmHg 76%

Mâine, 4 Martie, Joi

Timp Temperatura Precipitaţii Vânt Presiune Umiditate
00:00 +4°C° 0 mm 3 m/s 742 mmHg 78%
01:00 +4°C° 0 mm 3 m/s 742 mmHg 79%
02:00 +4°C° 0 mm 3 m/s 741 mmHg 79%
03:00 +4°C° 0 mm 3 m/s 741 mmHg 79%
04:00 +4°C° 0 mm 3 m/s 740 mmHg 79%
05:00 +3°C° 0 mm 3 m/s 740 mmHg 81%
06:00 +3°C° 0 mm 3 m/s 739 mmHg 82%
07:00 +3°C° 0 mm 3 m/s 739 mmHg 84%
08:00 +5°C° 0 mm 4 m/s 739 mmHg 78%
09:00 +6°C° 0 mm 5 m/s 739 mmHg 73%
10:00 +8°C° 0 mm 6 m/s 738 mmHg 67%
11:00 +9°C° 0 mm 6 m/s 738 mmHg 63%
12:00 +10°C° 0 mm 6 m/s 738 mmHg 59%
13:00 +11°C° 0 mm 6 m/s 738 mmHg 55%
14:00 +10°C° 0.1 mm 6 m/s 737 mmHg 60%
15:00 +9°C° 0.1 mm 5 m/s 737 mmHg 64%
16:00 +9°C° 0.1 mm 5 m/s 736 mmHg 69%
17:00 +8°C° 0.3 mm 5 m/s 736 mmHg 73%
18:00 +7°C° 0.3 mm 4 m/s 736 mmHg 77%
19:00 +6°C° 0.3 mm 4 m/s 736 mmHg 81%
20:00 +5°C° 0.2 mm 4 m/s 736 mmHg 81%
21:00 +4°C° 0.2 mm 4 m/s 736 mmHg 81%
22:00 +3°C° 0.2 mm 4 m/s 736 mmHg 81%
23:00 +1°C° 0.2 mm 4 m/s 736 mmHg 81%

Poimâine, 5 Martie, Vineri

Timp Temperatura Precipitaţii Vânt Presiune Umiditate
00:00 +2°C° 0.2 mm 3 m/s 736 mmHg 81%
01:00 +1°C° 0.2 mm 3 m/s 736 mmHg 80%
02:00 0°C° 0.3 mm 4 m/s 736 mmHg 84%
03:00 -1°C° 0.3 mm 4 m/s 737 mmHg 88%
04:00 -1°C° 0.3 mm 4 m/s 737 mmHg 91%
05:00 -2°C° 0.1 mm 4 m/s 738 mmHg 87%
06:00 -2°C° 0.1 mm 4 m/s 738 mmHg 82%
07:00 -3°C° 0.1 mm 4 m/s 739 mmHg 78%
08:00 -2°C° 0 mm 4 m/s 739 mmHg 72%
09:00 -2°C° 0 mm 4 m/s 740 mmHg 65%
10:00 -1°C° 0 mm 4 m/s 740 mmHg 59%
11:00 0°C° 0 mm 4 m/s 741 mmHg 56%
12:00 0°C° 0 mm 4 m/s 741 mmHg 52%
13:00 +1°C° 0 mm 4 m/s 741 mmHg 49%
14:00 +1°C° 0 mm 4 m/s 741 mmHg 47%
15:00 +1°C° 0 mm 4 m/s 742 mmHg 46%
16:00 0°C° 0 mm 4 m/s 742 mmHg 44%
17:00 +1°C° 0 mm 3 m/s 742 mmHg 49%
18:00 0°C° 0 mm 3 m/s 743 mmHg 53%
19:00 -1°C° 0 mm 2 m/s 744 mmHg 58%
20:00 -1°C° 0 mm 2 m/s 744 mmHg 59%
21:00 -1°C° 0 mm 2 m/s 744 mmHg 60%
22:00 -2°C° 0 mm 2 m/s 745 mmHg 62%
23:00 -2°C° 0 mm 2 m/s 745 mmHg 63%

6 Martie, Sâmbătă

Timp Temperatura Precipitaţii Vânt Presiune Umiditate
00:00 -2°C° 0 mm 3 m/s 746 mmHg 64%
01:00 -2°C° 0 mm 3 m/s 746 mmHg 65%
02:00 -2°C° 0 mm 3 m/s 746 mmHg 67%
03:00 -4°C° 0 mm 3 m/s 747 mmHg 69%
04:00 -4°C° 0 mm 4 m/s 747 mmHg 71%
05:00 -4°C° 0 mm 3 m/s 747 mmHg 72%
06:00 -4°C° 0 mm 3 m/s 748 mmHg 72%
07:00 -4°C° 0 mm 3 m/s 748 mmHg 73%
08:00 -2°C° 0 mm 3 m/s 749 mmHg 66%
09:00 -1°C° 0 mm 3 m/s 749 mmHg 59%
10:00 0°C° 0 mm 3 m/s 750 mmHg 51%
11:00 0°C° 0 mm 3 m/s 750 mmHg 46%
12:00 +1°C° 0 mm 3 m/s 750 mmHg 40%
13:00 +1°C° 0 mm 3 m/s 749 mmHg 34%
14:00 +1°C° 0 mm 3 m/s 749 mmHg 36%
15:00 +1°C° 0 mm 3 m/s 749 mmHg 38%
16:00 +1°C° 0 mm 3 m/s 749 mmHg 40%
17:00 0°C° 0 mm 3 m/s 749 mmHg 46%
18:00 -1°C° 0 mm 2 m/s 749 mmHg 51%
19:00 -2°C° 0 mm 2 m/s 749 mmHg 57%
20:00 -2°C° 0 mm 2 m/s 749 mmHg 58%
21:00 -2°C° 0 mm 3 m/s 749 mmHg 58%
22:00 -2°C° 0 mm 3 m/s 748 mmHg 59%
23:00 -2°C° 0 mm 3 m/s 748 mmHg 58%

7 Martie, Duminică

Timp Temperatura Precipitaţii Vânt Presiune Umiditate
00:00 -2°C° 0 mm 3 m/s 748 mmHg 57%
01:00 -3°C° 0 mm 4 m/s 747 mmHg 56%
02:00 -3°C° 0 mm 4 m/s 747 mmHg 56%
03:00 -3°C° 0 mm 4 m/s 746 mmHg 55%
04:00 -3°C° 0 mm 4 m/s 746 mmHg 55%
05:00 -3°C° 0 mm 4 m/s 746 mmHg 53%
06:00 -3°C° 0 mm 4 m/s 745 mmHg 52%
07:00 -3°C° 0 mm 4 m/s 745 mmHg 51%
08:00 -2°C° 0 mm 4 m/s 745 mmHg 46%
09:00 -1°C° 0 mm 5 m/s 745 mmHg 41%
10:00 +1°C° 0 mm 5 m/s 745 mmHg 37%
11:00 +2°C° 0 mm 5 m/s 744 mmHg 36%
12:00 +2°C° 0 mm 5 m/s 743 mmHg 36%
13:00 +3°C° 0 mm 5 m/s 743 mmHg 36%
14:00 +3°C° 0 mm 5 m/s 742 mmHg 38%
15:00 +3°C° 0 mm 5 m/s 742 mmHg 40%
16:00 +3°C° 0 mm 4 m/s 741 mmHg 43%
17:00 +1°C° 0 mm 4 m/s 741 mmHg 48%
18:00 +1°C° 0 mm 3 m/s 741 mmHg 54%
19:00 -1°C° 0 mm 3 m/s 741 mmHg 59%
20:00 -1°C° 0 mm 3 m/s 741 mmHg 60%
21:00 -1°C° 0 mm 3 m/s 741 mmHg 62%
22:00 -2°C° 0 mm 3 m/s 741 mmHg 63%
23:00 -2°C° 0 mm 3 m/s 740 mmHg 64%

8 Martie, Luni

Timp Temperatura Precipitaţii Vânt Presiune Umiditate
00:00 -2°C° 0 mm 2 m/s 740 mmHg 65%
01:00 -2°C° 0 mm 2 m/s 739 mmHg 67%
02:00 -2°C° 0 mm 2 m/s 739 mmHg 67%
03:00 -2°C° 0 mm 2 m/s 739 mmHg 67%
04:00 -2°C° 0 mm 2 m/s 738 mmHg 67%
05:00 -2°C° 0 mm 3 m/s 738 mmHg 69%
06:00 -2°C° 0 mm 3 m/s 738 mmHg 70%
07:00 -3°C° 0 mm 4 m/s 738 mmHg 71%
08:00 -2°C° 0 mm 4 m/s 738 mmHg 69%
09:00 -1°C° 0 mm 4 m/s 739 mmHg 67%
10:00 -1°C° 0 mm 5 m/s 739 mmHg 65%
11:00 0°C° 0 mm 4 m/s 739 mmHg 69%
12:00 0°C° 0 mm 4 m/s 739 mmHg 72%
13:00 0°C° 0 mm 4 m/s 739 mmHg 76%
14:00 +1°C° 0.1 mm 3 m/s 739 mmHg 78%
15:00 +1°C° 0.1 mm 3 m/s 739 mmHg 79%
16:00 +1°C° 0.1 mm 3 m/s 739 mmHg 81%
17:00 0°C° 0 mm 3 m/s 739 mmHg 80%
18:00 -1°C° 0 mm 2 m/s 740 mmHg 78%
19:00 -2°C° 0 mm 2 m/s 740 mmHg 76%
20:00 -2°C° 0 mm 2 m/s 741 mmHg 73%
21:00 -3°C° 0 mm 2 m/s 741 mmHg 70%
22:00 -3°C° 0 mm 2 m/s 742 mmHg 68%
23:00 -3°C° 0 mm 2 m/s 742 mmHg 71%
Arată mai mult

Formular de consimțământ

Meteoprog și furnizorii noștri de servicii pot stoca și accesa date personale, precum cookies, identificatori de dispozitiv sau alte tehnologii similare pe dispozitivul dumneavoastră și procesa astfel de date pentru a personaliza conținutul și reclamele, dar și pentru a oferi caracteristici de social media și pentru a analiza traficul.

  • Stocarea și/sau accesarea informațiilor pe dispozitivul dumneavoastră

    Cookies, identificatori de dispozitiv sau alte informații pot fi stocate sau accesate pe dispozitiv în scopurile indicate mai sus.

  • Reclame și conținut personalizat, evaluarea reclamelor și a conținutului, informații despre audiențe și dezvoltarea produselor

    Reclamele și conținutul pot fi personalizate pe baza unui profil. Pot fi adăugate date suplimentare pentru a personaliza mai bine reclamele și conținutul. Performanța reclamelor și conținutului poate fi măsurată. Pot fi obținute informații despre utilizatorii care au văzut reclamele și conținutul. Aceste date pot fi utilizate pentru a dezvolta sau îmbunătăți experiența utilizatorilor, sistemele și software-ul.

Dând clic pe ‘Sunt de acord’, permiteți utilizarea cookie-urilor menționate, a identificatorilor de dispozitiv, balizelor web sau altor tehnologii similare. Setările pot fi modificate din browser-ul dispozitivului dumneavoastră.

În anumite scopuri, interesele legitime pot prima asupra consimțământului. Puteți citi mai multe informații în acest sens în Politica privind Confidențialitatea Datelor și Cookie.